Flag for India Weather past 2 weeks in Nagercoil, Tamil Nadu, India

Now
82 °F

Passing clouds.


Feels Like: 88 °F
Forecast: 73 / 80 °F
Wind: No wind

Location: Thiruvananthapuram

Current Time: Dec 25, 2014 at 10:07:20 PM

Latest Report: Dec 25, 2014 at 8:40 PM


Visibility: 2 mi

Pressure: 29.89 "Hg

Humidity: 74%

Dew point: 73 °F

Location of NagercoilLocation

Historic Weather in Nagercoil — Graph

°F

Nagercoil temperature yesterday

Maximum temperature yesterday: 86 °F (at 2:40 PM)
Minimum temperature yesterday: 77 °F (at 6:10 AM)
Average temperature yesterday: 82 °F

Past Weeks' High & Low Weather Summary

 TemperatureHumidityPressure
High90 °F (Dec 14, 1:40 PM)94% (Dec 10, 8:40 PM)29.95 "Hg (Dec 10, 8:40 PM)
Low73 °F (Dec 20, 7:10 AM)38% (Dec 14, 3:10 PM)29.71 "Hg (Dec 21, 4:40 PM)
Average82 °F81%29.83 "Hg
* Reported Dec 10 8:40 PM — Dec 25 8:40 PM, Nagercoil, Weather by CustomWeather, © 2014

Note: Actual official high and low records may vary slightly from our data, if they occured in-between our weather recording intervals... More about our weather records

Advertising

Nagercoil weather history for previous 24 hours

 ConditionsComfort  
Time TempWeatherWind HumidityBarometerVisibility
8:40 PM
Dec 25
82 °FPassing clouds.No wind74%29.89 "Hg2 mi
7:10 PM82 °FPassing clouds.5 mph74%29.86 "Hg3 mi
6:40 PM82 °FScattered clouds.6 mph79%29.86 "Hg3 mi
5:40 PM84 °FScattered clouds.5 mph74%29.83 "Hg3 mi
4:40 PM84 °FScattered clouds.5 mph74%29.80 "Hg3 mi
4:10 PM84 °FScattered clouds.7 mph74%29.80 "Hg3 mi
3:40 PM84 °FBroken clouds.8 mph74%29.80 "Hg3 mi
3:10 PM86 °FBroken clouds.6 mph70%29.80 "Hg3 mi
1:40 PM86 °FBroken clouds.5 mph70%29.83 "Hg4 mi
1:10 PM88 °FBroken clouds.7 mph70%29.86 "Hg4 mi
12:40 PM86 °FScattered clouds.6 mph75%29.86 "Hg4 mi
11:40 AM86 °FScattered clouds.5 mph75%29.89 "Hg4 mi
10:40 AM86 °FScattered clouds.5 mph75%29.92 "Hg4 mi
9:40 AM84 °FScattered clouds.5 mph74%29.92 "Hg4 mi
8:40 AM81 °FBroken clouds.No wind84%29.92 "Hg2 mi
7:40 AM77 °FBroken clouds.No wind89%29.89 "Hg2 mi
7:10 AM77 °FFog.No wind89%29.89 "Hg1 mi
6:40 AM77 °FFog.No wind89%29.86 "Hg1 mi
6:10 AM77 °FPartly cloudy.No wind89%29.86 "Hg2 mi
4:40 AM77 °FPassing clouds.No wind89%29.83 "Hg2 mi
3:40 AM79 °FPassing clouds.No wind84%29.83 "Hg2 mi
2:40 AM79 °FPassing clouds.No wind89%29.83 "Hg2 mi
1:40 AM79 °FPassing clouds.No wind89%29.86 "Hg2 mi
1:10 AM79 °FPassing clouds.No wind89%29.86 "Hg2 mi
12:40 AM79 °FPassing clouds.No wind89%29.89 "Hg2 mi
11:40 PM
Dec 24
79 °FPassing clouds.No wind89%29.89 "Hg2 mi
10:40 PM81 °FPassing clouds.No wind84%29.92 "Hg2 mi
Weather by CustomWeather, © 2014

See weather overviewHow to use our weather pages